Theta_e
307 303 299 302 309 311 313 315 315 314 317 317 329 329 333 348 351 352 363 360 362 364 365 365 365 363 361 360 361 361 360 362
305 302 306 307 310 312 311 313 314 314 311 321 332 326 328 342 351 352 361 362 360 363 364 365 364 363 361 361 361 361 361 362
302 303 307 310 312 311 309 311 312 313 310 315 324 326 326 335 346 351 356 361 360 363 364 365 364 363 362 361 360 360 362 362
301 304 309 311 313 311 309 311 312 311 312 315 325 324 323 325 339 347 356 358 359 362 363 363 363 362 361 360 359 360 361 361
302 303 306 309 314 310 310 310 311 314 310 315 320 327 326 325 327 345 354 358 357 357 361 363 362 361 360 360 359 360 360 360
303 303 304 310 311 312 310 309 315 315 309 310 319 322 322 323 322 331 348 356 357 358 354 357 359 362 361 360 360 360 360 360
302 303 304 309 307 311 313 310 311 312 312 315 318 318 317 318 319 322 353 354 355 351 349 352 354 359 361 361 361 360 360 359
307 306 304 306 306 307 307 307 307 309 313 316 316 317 314 314 316 318 337 352 353 352 346 347 347 357 358 358 358 356 355 356
307 308 308 306 306 309 306 304 308 308 311 313 314 316 315 315 316 317 321 347 352 358 351 345 343 356 354 355 354 353 352 354
307 308 307 305 308 306 307 307 310 311 312 312 312 314 314 315 316 317 320 328 355 356 356 348 344 353 352 352 351 350 350 354
309 308 308 309 307 307 308 311 313 313 312 311 313 314 315 318 320 321 320 324 346 357 359 349 352 348 348 347 347 347 347 352
308 308 309 307 307 307 308 312 311 311 311 312 311 314 315 317 320 323 327 328 335 355 357 353 350 351 346 345 345 346 346 351
308 310 309 310 305 305 311 313 311 312 313 314 316 315 316 318 321 325 328 336 337 358 353 355 350 359 349 346 345 345 347 351
308 309 309 308 300 308 312 311 310 311 312 314 315 315 318 323 324 329 333 333 335 329 357 354 352 350 353 349 348 344 348 351
303 308 307 306 302 308 312 312 311 312 313 314 315 317 322 322 322 324 332 333 332 336 352 353 355 351 352 355 348 349 351 353
299 305 306 304 304 308 312 312 313 314 315 316 317 319 322 325 325 328 330 335 338 334 340 352 353 353 348 350 351 353 350 352
303 307 305 304 304 307 312 313 312 314 314 316 318 322 327 330 330 329 331 334 337 333 338 350 350 349 346 344 347 347 348 353
304 307 305 304 304 309 312 312 313 313 313 313 314 317 320 325 327 334 331 336 333 336 333 345 351 352 350 348 347 347 348 350
300 304 306 305 303 306 311 313 314 315 316 316 316 317 320 322 326 327 333 331 332 334 332 346 349 354 352 350 347 345 345 348
301 300 295 304 295 304 307 309 311 311 312 314 316 318 319 320 321 327 328 332 331 333 332 344 350 351 349 345 341 343 343 343
Wind_Speed
6 13 16 15 19 11 11 12 6 4 5 9 7 14 6 9 4 1 17 15 13 14 15 15 17 14 17 18 16 15 13 12
10 19 18 22 19 6 7 4 3 4 8 7 10 6 7 8 5 4 18 16 19 14 13 15 16 16 15 16 17 16 16 13
13 17 19 20 20 11 4 9 11 6 11 1 12 11 8 8 5 5 5 18 17 17 12 15 16 17 16 17 18 17 16 14
13 18 22 18 7 2 2 9 14 6 6 4 13 10 7 8 5 2 14 16 15 16 14 13 15 16 17 16 16 17 17 16
17 17 20 6 8 5 6 9 15 15 9 4 3 14 8 4 6 7 9 19 15 14 13 13 14 15 15 17 16 16 16 15
17 16 18 12 3 6 5 12 18 16 7 7 10 10 8 8 9 6 12 19 16 13 14 12 12 15 16 15 17 16 16 16
17 13 12 17 12 5 3 12 8 16 17 15 20 17 13 10 13 10 8 8 16 15 13 12 12 12 15 17 15 16 14 15
11 11 12 14 13 14 15 15 16 16 20 18 19 15 16 13 12 13 10 14 10 14 16 13 11 12 11 12 10 9 10 11
12 11 11 13 14 14 15 16 16 16 16 18 17 16 16 15 14 12 14 9 14 10 13 16 13 10 7 6 7 9 12 11
10 11 13 14 15 17 17 18 17 17 17 16 18 17 18 17 15 14 14 9 17 15 12 13 9 11 10 8 8 8 10 12
10 15 15 17 19 20 21 19 18 19 18 17 15 16 14 16 14 15 15 13 3 17 10 12 9 10 10 9 9 9 9 11
18 20 18 19 17 15 19 19 18 17 16 15 15 14 13 12 11 12 10 10 6 10 11 11 10 12 10 10 11 10 9 11
22 18 13 13 19 20 22 18 14 12 13 14 14 15 13 11 10 10 8 7 7 7 11 10 8 6 10 10 11 10 10 13
8 12 10 10 21 16 16 15 14 15 14 13 13 16 14 9 8 8 6 6 10 8 14 11 11 6 8 9 8 10 9 10
16 19 18 20 20 18 19 20 18 17 18 15 15 16 11 11 10 9 7 7 8 9 15 15 13 6 7 9 10 9 7 10
18 19 19 20 21 19 19 21 20 18 17 16 15 14 14 15 15 10 8 8 7 8 6 19 15 10 3 9 9 6 7 9
20 17 18 18 22 23 22 16 15 11 13 13 13 11 5 5 9 10 10 9 9 9 9 5 10 11 10 8 7 10 10 10
17 16 18 21 25 25 15 9 12 15 13 11 11 11 11 8 8 8 10 9 11 11 11 8 11 12 11 10 9 11 9 9
19 20 20 25 19 15 10 10 18 22 19 17 14 11 11 10 9 10 10 11 11 11 11 12 17 11 10 11 10 8 6 9
20 20 16 20 13 13 11 8 12 16 20 22 23 23 17 16 17 12 12 12 12 12 11 11 13 13 15 14 14 10 6 10
Wind_Direction
221 234 248 266 278 359 29 80 48 298 305 325 60 57 67 73 81 333 131 145 141 149 148 147 148 160 151 151 151 148 153 157
257 259 242 235 265 30 348 3 139 292 284 87 63 83 74 82 60 114 137 144 137 143 151 151 153 158 157 155 153 154 154 158
246 249 262 282 288 76 341 295 301 202 261 74 107 96 46 67 114 138 135 115 140 141 157 154 158 159 161 160 158 157 156 158
250 250 245 241 51 14 259 277 293 244 279 64 125 134 90 4 89 324 143 132 138 144 152 161 161 166 161 162 162 158 158 156
267 281 296 332 73 19 341 297 279 324 258 246 53 99 89 338 294 175 160 134 143 156 157 162 162 164 166 159 162 162 158 156
276 280 279 298 61 110 293 285 301 319 304 276 258 19 356 331 307 266 190 143 147 157 170 174 173 167 164 165 161 161 158 155
260 285 338 353 349 330 171 266 286 291 293 299 301 321 307 304 289 285 113 143 153 152 169 182 177 177 164 166 163 160 162 160
23 349 331 329 328 314 310 294 279 270 276 269 274 276 273 266 270 275 194 168 166 156 165 182 184 162 184 174 174 174 177 172
331 343 329 311 300 296 289 278 277 278 280 288 290 288 288 281 267 268 283 177 168 164 165 177 197 158 180 177 183 181 186 177
310 311 302 294 296 287 280 279 285 283 280 278 282 288 291 288 284 264 259 263 162 171 167 179 192 161 174 183 190 182 190 179
292 286 281 281 278 280 277 276 272 270 271 266 267 267 266 279 289 296 298 307 200 168 157 174 195 165 172 194 186 187 181 181
290 281 275 272 284 298 285 284 277 265 255 253 255 270 267 259 260 266 282 293 339 172 182 156 203 171 173 189 183 180 183 178
266 251 248 263 269 257 263 267 254 264 272 273 262 249 265 271 260 243 254 252 262 190 199 183 179 199 178 183 185 181 188 174
304 203 253 267 275 278 274 276 288 283 280 261 240 248 251 254 258 251 242 280 252 242 184 207 185 222 188 182 200 184 183 179
318 322 310 286 282 284 278 269 268 260 264 237 241 239 228 226 239 263 229 233 258 278 187 189 199 172 211 205 200 185 184 171
300 300 289 283 289 297 309 299 287 280 273 268 254 247 224 221 222 214 221 207 224 260 248 207 180 194 244 208 193 205 188 167
285 298 332 315 307 294 282 280 309 341 328 322 337 328 293 278 225 207 207 199 204 234 261 227 204 190 198 229 204 209 189 176
309 335 318 297 283 273 288 339 324 291 333 353 326 317 316 314 306 254 218 203 199 203 245 232 196 201 200 199 227 206 184 177
320 308 289 284 292 320 330 15 22 3 2 349 338 337 333 316 249 253 241 221 202 207 221 248 188 200 195 208 217 207 191 151
303 299 298 298 299 309 40 27 11 353 347 342 334 327 317 302 292 240 233 218 209 197 208 244 203 198 194 198 207 211 192 160